DW8463 Weather Reports


time (UTC)temp
C
wind
direction
speed
KPH
gust
KPH
rain 1hr
cm
rain 24hr
cm
rain mn
cm
humidity
%
barometer
mb
20260905144803 22 87 4.8 11.3 0.00 0.00 0.00 100 1015.0
20260905144303 22 72 4.8 11.3 0.00 0.00 0.00 100 1014.8
20260905143803 22 100 1.6 11.3 0.00 0.00 0.00 100 1014.9
20260905143303 22 71 8.0 14.5 0.00 0.00 0.00 100 1014.8
20260905142803 22 93 3.2 12.9 0.00 0.00 0.00 100 1014.7
20260905142306 22 75 8.0 12.9 0.00 0.00 0.00 100 1014.6
20260905141803 22 77 4.8 11.3 0.00 0.00 0.00 100 1014.7
20260905141304 22 40 4.8 9.7 0.00 0.00 0.00 100 1014.6
20260905140303 22 78 4.8 11.3 0.00 0.00 0.00 100 1014.5
20260905135803 22 80 4.8 9.7 0.00 0.00 0.00 100 1014.4
20260905135306 22 71 8.0 14.5 0.00 0.00 0.00 100 1014.5
20260905134803 22 73 6.4 16.1 0.00 0.00 0.00 100 1014.4
20260905134303 22 97 8.0 14.5 0.00 0.00 0.00 100 1014.5
20260905133803 22 79 3.2 11.3 0.00 0.00 0.00 100 1014.3
20260905133303 21 71 4.8 12.9 0.00 0.00 0.00 100 1014.3
20260905132803 21 98 4.8 11.3 0.00 0.00 0.00 100 1014.4
20260905132305 21 45 4.8 14.5 0.00 0.00 0.00 100 1014.3
20260905131804 21 65 1.6 9.7 0.00 0.00 0.00 100 1014.1
20260905131303 21 66 3.2 9.7 0.00 0.00 0.00 100 1014.0
20260905130803 21 89 1.6 8.0 0.00 0.00 0.00 100 1013.8
20260905125803 21 65 8.0 16.1 0.00 0.00 0.00 100 1013.4
20260905125306 21 89 4.8 14.5 0.00 0.00 0.00 100 1013.5
20260905124803 21 68 4.8 12.9 0.00 0.00 0.00 100 1013.3
20260905124303 21 74 4.8 11.3 0.00 0.00 0.00 100 1013.2
20260905123803 21 89 3.2 9.7 0.00 0.00 0.00 100 1013.1
20260905123303 21 36 3.2 12.9 0.00 0.00 0.00 100 1013.1
20260905122803 21 58 8.0 16.1 0.00 0.00 0.00 100 1013.1
20260905122306 21 78 3.2 11.3 0.00 0.00 0.00 100 1013.2
20260905121803 21 83 4.8 9.7 0.00 0.00 0.00 100 1013.2
20260905121303 21 76 4.8 12.9 0.00 0.00 0.00 100 1013.3
20260905120804 21 33 3.2 8.0 0.00 0.00 0.00 100 1013.2
20260905120304 21 84 1.6 9.7 0.00 0.00 0.00 100 1013.2
20260905115803 21 92 4.8 11.3 0.00 0.00 0.00 100 1013.0
20260905115306 21 80 4.8 11.3 0.00 0.00 0.00 100 1013.0
20260905114803 21 61 3.2 12.9 0.00 0.00 0.00 100 1012.9
20260905114303 21 47 4.8 11.3 0.00 0.00 0.00 100 1013.0
20260905113803 21 43 3.2 9.7 0.00 0.00 0.00 100 1013.0
20260905112803 21 73 4.8 8.0 0.00 0.00 0.00 100 1012.9
20260905112305 21 86 3.2 4.8 0.00 0.00 0.00 100 1012.9
20260905111303 21 58 1.6 4.8 0.00 0.00 0.00 100 1013.0
20260905105804 21 71 3.2 8.0 0.00 0.00 0.00 100 1013.0
20260905105306 21 84 4.8 9.7 0.00 0.00 0.00 100 1012.9
20260905104803 21 89 1.6 8.0 0.00 0.00 0.00 100 1012.9
20260905104303 21 90 3.2 8.0 0.00 0.00 0.00 100 1012.8
20260905103804 21 63 1.6 4.8 0.00 0.00 0.00 100 1012.7
20260905102306 21 57 3.2 8.0 0.00 0.00 0.00 100 1012.7
20260905101304 21 337 0.0 1.6 0.00 0.00 0.00 100 1012.9
20260905100803 21 338 1.6 4.8 0.00 0.00 0.00 100 1012.5
20260905100304 21 84 4.8 11.3 0.00 0.00 0.00 100 1012.1
20260905095803 21 65 1.6 4.8 0.00 0.00 0.00 100 1012.0
20260905095306 21 71 3.2 9.7 0.00 0.00 0.00 100 1011.9
20260905094803 20 82 0.0 3.2 0.00 0.00 0.00 100 1012.1
20260905094303 20 45 1.6 8.0 0.00 0.00 0.00 100 1012.1
20260905093802 20 79 3.2 11.3 0.00 0.00 0.00 100 1012.0
20260905093303 20 82 1.6 12.9 0.00 0.00 0.00 100 1011.9
20260905092803 20 51 1.6 4.8 0.00 0.00 0.00 100 1011.9
20260905092306 20 49 1.6 9.7 0.00 0.00 0.00 100 1011.9
20260905091803 20 87 6.4 11.3 0.00 0.00 0.00 100 1012.0
20260905090803 20 39 3.2 4.8 0.00 0.00 0.00 100 1012.3
20260905090303 20 38 3.2 4.8 0.00 0.00 0.00 100 1012.3
20260905085305 20 54 3.2 12.9 0.00 0.00 0.00 100 1012.4
20260905084803 20 78 3.2 4.8 0.00 0.00 0.00 100 1012.4
20260905083803 20 32 1.6 4.8 0.00 0.00 0.00 100 1012.6
20260905083303 20 38 0.0 1.6 0.00 0.00 0.00 100 1012.6
20260905082803 20 38 0.0 3.2 0.00 0.00 0.00 100 1012.6
20260905082306 20 38 0.0 0.0 0.00 0.00 0.00 100 1012.7
20260905081803 20 38 0.0 0.0 0.00 0.00 0.00 100 1012.6
20260905080804 20 28 0.0 0.0 0.00 0.00 0.00 100 1012.6
20260905075803 20 28 0.0 0.0 0.00 0.00 0.00 100 1012.6
20260905075306 20 29 0.0 3.2 0.00 0.00 0.00 100 1012.5
20260905074803 20 0 0.0 0.0 0.00 0.00 0.00 100 1012.5
20260905074303 20 0 0.0 1.6 0.00 0.00 0.00 100 1012.6
20260905073803 20 0 0.0 1.6 0.00 0.00 0.00 100 1012.6
20260905072803 20 311 3.2 4.8 0.00 0.00 0.00 100 1012.6
20260905071303 20 32 0.0 0.0 0.00 0.00 0.00 100 1012.4
20260905070804 20 37 0.0 0.0 0.00 0.00 0.00 100 1012.4
20260905070303 20 36 0.0 0.0 0.00 0.00 0.00 100 1012.3
20260905065803 20 25 0.0 0.0 0.00 0.00 0.00 100 1012.2
20260905065306 21 40 0.0 0.0 0.00 0.00 0.00 100 1012.1
20260905064803 21 28 0.0 1.6 0.00 0.00 0.00 100 1012.2
20260905064303 21 41 0.0 3.2 0.00 0.00 0.00 100 1012.2
20260905063804 21 24 0.0 3.2 0.00 0.00 0.00 100 1012.2
20260905063303 21 36 1.6 3.2 0.00 0.00 0.00 100 1012.2
20260905061803 21 37 0.0 0.0 0.00 0.00 0.00 100 1012.3
20260905060803 21 19 0.0 3.2 0.00 0.00 0.00 100 1012.3
20260905060303 21 19 0.0 3.2 0.00 0.00 0.00 100 1012.3
20260905055804 21 19 0.0 1.6 0.00 0.00 0.00 100 1012.3
20260905054303 21 19 1.6 4.8 0.00 0.00 0.00 100 1012.2
20260905053803 22 0 0.0 4.8 0.00 0.00 0.00 100 1012.2
20260905053303 22 0 0.0 4.8 0.00 0.00 0.00 100 1012.1
20260905052803 22 0 1.6 4.8 0.00 0.00 0.00 100 1012.0
20260905052306 22 166 0.0 4.8 0.00 0.00 0.00 100 1011.8
20260905051803 22 159 0.0 1.6 0.00 0.00 0.00 100 1011.8
20260905051303 22 151 0.0 3.2 0.00 0.00 0.00 100 1011.8
20260905050303 22 129 0.0 4.8 0.00 0.00 0.00 100 1011.6
20260905045803 22 151 0.0 4.8 0.00 0.00 0.00 100 1011.7
20260905045305 22 144 0.0 0.0 0.00 0.00 0.00 100 1011.7
20260905044803 22 0 0.0 3.2 0.00 0.00 0.00 100 1011.7
20260905044303 22 0 0.0 4.8 0.00 0.00 0.00 100 1011.8
20260905043803 23 0 1.6 4.8 0.00 0.00 0.00 100 1011.8
20260905042307 23 0 1.6 3.2 0.00 0.00 0.00 100 1011.8
20260905041803 23 0 0.0 4.8 0.00 0.00 0.00 100 1011.8
20260905041303 23 352 1.6 4.8 0.00 0.00 0.00 100 1011.7
20260905040803 23 341 1.6 4.8 0.00 0.00 0.00 100 1011.7
20260905040303 23 10 0.0 4.8 0.00 0.00 0.00 100 1011.7
20260905035803 24 29 0.0 4.8 0.00 0.00 0.00 98 1011.6
20260905034803 24 336 0.0 3.2 0.00 0.00 0.00 98 1011.6
20260905034303 24 335 3.2 4.8 0.00 0.00 0.00 98 1011.6
20260905033803 24 9 1.6 4.8 0.00 0.00 0.00 98 1011.6
20260905032306 24 355 1.6 4.8 0.00 0.00 0.00 98 1011.7
20260905031803 24 82 0.0 3.2 0.00 0.00 0.00 98 1011.7
20260905031303 25 82 0.0 0.0 0.00 0.00 0.00 98 1011.7
20260905030803 25 81 0.0 0.0 0.00 0.00 0.00 98 1011.7
20260905030303 25 81 0.0 0.0 0.00 0.00 0.00 98 1011.8
20260905025803 25 81 0.0 0.0 0.00 0.00 0.00 99 1011.7
20260905025306 25 81 0.0 0.0 0.00 0.00 0.00 99 1011.7
20260905023803 25 81 0.0 0.0 0.00 0.00 0.00 99 1011.6
20260905023303 25 81 0.0 0.0 0.00 0.00 0.00 99 1011.5
20260905022803 25 81 0.0 0.0 0.00 0.00 0.00 99 1011.5
20260905022306 25 81 0.0 0.0 0.00 0.00 0.00 99 1011.4
20260905021303 25 81 1.6 4.8 0.00 0.00 0.00 99 1011.3
20260905020803 25 81 0.0 4.8 0.00 0.00 0.00 99 1011.2
20260905020304 25 81 1.6 4.8 0.00 0.00 0.00 99 1011.2
20260905015804 25 23 1.6 4.8 0.00 0.00 0.00 100 1011.1
20260905014804 25 335 0.0 3.2 0.00 0.00 0.00 100 1010.8
20260905013803 26 335 0.0 3.2 0.00 0.00 0.00 100 1010.7
20260905013304 26 335 1.6 3.2 0.00 0.00 0.00 100 1010.6
20260905012803 26 335 0.0 0.0 0.00 0.00 0.00 100 1010.4
20260905012306 26 335 0.0 0.0 0.00 0.00 0.00 100 1010.4
20260905011803 27 335 0.0 1.6 0.00 0.00 0.00 100 1010.3
20260905011303 27 335 1.6 4.8 0.00 0.00 0.00 100 1010.2
20260905010804 27 347 1.6 4.8 0.00 0.00 0.00 100 1010.1
20260905010304 27 313 1.6 3.2 0.00 0.00 0.00 98 1010.1
20260905005804 27 313 0.0 0.0 0.00 0.00 0.00 89 1010.1
20260905005306 27 313 0.0 0.0 0.00 0.00 0.00 89 1010.0
20260905004804 27 313 0.0 0.0 0.00 0.00 0.00 89 1010.0
20260905003803 28 313 0.0 3.2 0.00 0.00 0.00 89 1009.9
20260905003304 28 313 0.0 4.8 0.00 0.00 0.00 89 1009.8
20260905002803 28 22 1.6 4.8 0.00 0.00 0.00 89 1009.8
20260905002306 28 17 0.0 4.8 0.00 0.00 0.00 89 1009.8
20260905001804 28 345 1.6 4.8 0.00 0.00 0.00 89 1009.8
20260905001303 29 330 1.6 9.7 0.00 0.00 0.00 89 1009.7
20260905000803 29 9 3.2 12.9 0.00 0.00 0.00 89 1009.7
20260904235804 29 337 3.2 12.9 0.00 0.00 0.00 77 1009.7
20260904235306 30 347 3.2 9.7 0.00 0.00 0.00 77 1009.6
20260904234803 30 343 4.8 12.9 0.00 0.00 0.00 77 1009.6
20260904234303 30 336 4.8 9.7 0.00 0.00 0.00 77 1009.6
20260904233804 30 342 4.8 11.3 0.00 0.00 0.00 77 1009.6
20260904233303 30 309 4.8 12.9 0.00 0.00 0.00 77 1009.6
20260904231304 31 3 8.0 16.1 0.00 0.00 0.00 77 1009.4
20260904230304 31 343 6.4 14.5 0.00 0.00 0.00 77 1009.2
20260904225803 31 356 9.7 19.3 0.00 0.00 0.00 74 1009.2
20260904225305 31 321 9.7 19.3 0.00 0.00 0.00 74 1009.1
20260904224804 31 338 11.3 19.3 0.00 0.00 0.00 74 1009.1
20260904224304 32 338 4.8 16.1 0.00 0.00 0.00 74 1009.1
20260904223803 32 335 8.0 14.5 0.00 0.00 0.00 74 1009.0
20260904223304 32 7 8.0 14.5 0.00 0.00 0.00 74 1008.9
20260904222803 32 357 9.7 19.3 0.00 0.00 0.00 74 1008.9
20260904221304 33 238 1.6 8.0 0.00 0.00 0.00 74 1008.8
20260904220803 33 294 3.2 11.3 0.00 0.00 0.00 74 1008.7
20260904220303 33 266 4.8 14.5 0.00 0.00 0.00 74 1008.7
20260904215803 33 301 3.2 12.9 0.00 0.00 0.00 70 1008.6
20260904215305 33 277 6.4 12.9 0.00 0.00 0.00 70 1008.6
20260904214803 33 7 0.0 4.8 0.00 0.00 0.00 70 1008.6
20260904214303 33 352 3.2 8.0 0.00 0.00 0.00 70 1008.7
20260904213804 33 322 3.2 4.8 0.00 0.00 0.00 70 1008.7
20260904213303 33 324 6.4 11.3 0.00 0.00 0.00 70 1008.7
20260904212804 33 316 8.0 14.5 0.00 0.00 0.00 70 1008.6
20260904212306 33 340 4.8 12.9 0.00 0.00 0.00 70 1008.6
20260904211804 33 298 3.2 9.7 0.00 0.00 0.00 70 1008.6
20260904211304 33 322 3.2 4.8 0.00 0.00 0.00 70 1008.6
20260904210803 33 309 4.8 9.7 0.00 0.00 0.00 70 1008.5
20260904210303 33 323 1.6 14.5 0.00 0.00 0.00 70 1008.5
20260904205305 33 229 0.0 3.2 0.00 0.00 0.00 67 1008.5
20260904204804 33 319 3.2 8.0 0.00 0.00 0.00 67 1008.5
20260904204303 33 305 1.6 3.2 0.00 0.00 0.00 67 1008.6
20260904203304 33 112 3.2 8.0 0.00 0.00 0.00 67 1008.6
20260904201804 33 30 3.2 8.0 0.00 0.00 0.00 67 1008.7
20260904201303 33 59 0.0 4.8 0.00 0.00 0.00 67 1008.6
20260904200803 33 42 1.6 4.8 0.00 0.00 0.00 67 1008.7
20260904200303 33 317 8.0 12.9 0.00 0.00 0.00 67 1008.6
20260904195803 33 77 6.4 9.7 0.00 0.00 0.00 74 1008.6
20260904195305 33 54 1.6 8.0 0.00 0.00 0.00 74 1008.7
20260904194303 33 337 6.4 16.1 0.00 0.00 0.00 74 1008.7
20260904193804 33 300 3.2 9.7 0.00 0.00 0.00 74 1008.7
20260904193304 33 303 6.4 12.9 0.00 0.00 0.00 74 1008.7
20260904192803 33 29 3.2 8.0 0.00 0.00 0.00 74 1008.7
20260904192306 33 344 6.4 11.3 0.00 0.00 0.00 74 1008.7
20260904191803 33 357 1.6 11.3 0.00 0.00 0.00 74 1008.7
20260904191304 34 321 4.8 4.8 0.00 0.00 0.00 74 1008.8
20260904190803 33 339 1.6 8.0 0.00 0.00 0.00 74 1008.8
20260904190303 33 81 1.6 4.8 0.00 0.00 0.00 74 1008.9
20260904185804 33 33 4.8 8.0 0.00 0.00 0.00 77 1008.8
20260904185306 33 326 3.2 8.0 0.00 0.00 0.00 77 1008.8
20260904184804 33 121 1.6 3.2 0.00 0.00 0.00 77 1008.8
20260904184303 33 335 1.6 4.8 0.00 0.00 0.00 77 1008.8
20260904183803 33 177 3.2 8.0 0.00 0.00 0.00 77 1008.8
20260904182306 33 163 3.2 9.7 0.00 0.00 0.00 77 1008.8
20260904180804 32 24 3.2 11.3 0.00 0.00 0.00 77 1008.9
20260904180303 32 125 1.6 11.3 0.00 0.00 0.00 77 1008.8
20260904175803 32 130 3.2 8.0 0.00 0.00 0.00 77 1008.7
20260904175305 32 160 1.6 8.0 0.00 0.00 0.00 77 1008.7
20260904174303 32 172 3.2 11.3 0.00 0.00 0.00 77 1008.7
20260904172804 32 227 3.2 8.0 0.00 0.00 0.00 77 1008.7
20260904171803 31 121 4.8 9.7 0.00 0.00 0.00 77 1008.7
20260904171303 31 141 4.8 9.7 0.00 0.00 0.00 77 1008.7
20260904170803 31 119 4.8 12.9 0.00 0.00 0.00 77 1008.7
20260904170303 31 164 4.8 8.0 0.00 0.00 0.00 77 1008.7
20260904165305 31 100 3.2 11.3 0.00 0.00 0.00 73 1008.7
20260904164804 31 127 3.2 8.0 0.00 0.00 0.00 73 1008.7
20260904164304 31 124 4.8 9.7 0.00 0.00 0.00 73 1008.7
20260904163803 31 132 1.6 8.0 0.00 0.00 0.00 73 1008.7
20260904163303 31 101 6.4 11.3 0.00 0.00 0.00 73 1008.7
20260904162803 31 200 3.2 8.0 0.00 0.00 0.00 73 1008.8
20260904162306 30 142 3.2 4.8 0.00 0.00 0.00 73 1008.8
20260904161804 31 170 1.6 9.7 0.00 0.00 0.00 73 1008.8
20260904161304 30 91 3.2 4.8 0.00 0.00 0.00 73 1008.8
20260904160803 30 136 0.0 0.0 0.00 0.00 0.00 73 1008.8
20260904155803 30 107 3.2 9.7 0.00 0.00 0.00 80 1008.7
20260904155306 29 17 3.2 11.3 0.00 0.00 0.00 80 1008.7
20260904154803 29 58 1.6 4.8 0.00 0.00 0.00 80 1008.7
20260904154304 29 143 3.2 4.8 0.00 0.00 0.00 80 1008.8
20260904153803 29 90 1.6 4.8 0.00 0.00 0.00 80 1008.8
20260904153303 30 90 3.2 4.8 0.00 0.00 0.00 80 1008.8
20260904152803 28 252 0.0 3.2 0.00 0.00 0.00 80 1008.7
20260904152306 28 248 0.0 1.6 0.00 0.00 0.00 80 1008.8
20260904151804 28 213 0.0 4.8 0.00 0.00 0.00 80 1009.0
20260904151303 28 211 3.2 8.0 0.00 0.00 0.00 80 1009.0
20260904145803 28 0 1.6 8.0 0.00 0.00 0.00 86 1008.9
20260904145305 28 344 4.8 4.8 0.00 0.00 0.00 86 1008.9